Torna al catalogo

STARLINK-32549

AttivoComunicazioniVLEO
NORAD 62118·PAYLOAD·🇺🇸 United States

Lanciato Nov 27, 2024 da Cape Canaveral Space Force Station

Loading…

Prossimi Passaggi (prossime 24 ore)

TLE

AggiornatoSource: CelesTrak SupGP

Epoca: Sep 14, 2026, 22:34 UTC

1 62118C 24222E   26257.94076389 -.00000121  00000+0 -43769-5 0  2574
2 62118  42.9989 147.0338 0001481 272.6939 196.5662 15.27561836    19

Traccia STARLINK-32549 in tempo reale con AllMySat

Download on the App Store